Location: *
(48.8489°N, 2.3218°E)
Time: 10:56:12
(UTC+00:00)

Cosmos 1782 Rocket - Pass Details

Date: 23 August 2019
Orbit: 606 x 633 km, 82.5° (Epoch: 23 September)

Event Time Altitude Azimuth Distance (km) Brightness Sun altitude
Exits shadow 20:26:21 24° 134° (SE) 1,297 4.6 -14.6°
Maximum altitude 20:28:10 34° 91° (E) 1,034 4.3 -14.8°
Drops below altitude 10° 20:32:10 10° 26° (NNE) 1,999 6.3 -15.3°
Sets 20:34:32 0° 18° (NNE) 2,906 7.3 -15.6°
